Regional Weather Roundup
Issued by NWS Wakefield, VA

Home | Current Version | Previous Version | Graphics & Text | Print | Product List | Glossary On
Versions: 1 2 3 4 5 6 7 8 9 10 11 12 13 14 15 16 17 18 19 20 21 22 23 24 25 26 27 28 29 30 31 32 33 34 35 36 37 38 39 40 41 42 43 44 45 46 47 48 49 50
000
ASUS41 KAKQ 212110
RWRAKQ

REGIONAL WEATHER ROUNDUP
NATIONAL WEATHER SERVICE WAKEFIELD VA
500 PM EDT SUN SEP 21 2014

Note: "fair" indicates few or no clouds below 12,000 feet with no
significant weather and/or obstructions to visibility. * = Denotes
station may not report precipitation (e.g., rain,snow,etc.),
thunder or fog.

VAZ042-051-052>054-056-212200-
NORTHERN VIRGINIA

CITY           SKY/WX    TMP DP  RH WIND       PRES   REMARKS
WASH NATIONAL  MOSUNNY   85  62  46 S12       29.66F
DULLES         MOSUNNY   83  62  49 S13       29.66F
FORT BELVOIR   SUNNY     82  61  47 S7        29.67F
QUANTICO       SUNNY     80  68  66 S6        29.67F
FREDERICKSBRG* SUNNY     88  60  37 SW8       29.67F
STAFFORD*      SUNNY     85  60  42 CALM      29.71F
WARRENTON      MOSUNNY   89  67  49 S8        29.66F
CULPEPER*      SUNNY     90  59  35 SW9       29.66F
MANASSAS*      SUNNY     84  64  51 S8        29.66F
LEESBURG*      SUNNY     86  64  48 SW10      29.66F
WINCHESTER     PTSUNNY   82  64  54 S5        29.66S
FRONT ROYAL*   PTCLDY    82  64  54 S5        29.65F
LURAY*         CLOUDY    86  63  45 W5        29.67F
$$

VAZ048-049-060>072-079>083-212200-
CENTRAL AND SOUTH CENTRAL VIRGINIA...AND NORTH CENTRAL NORTH CAROLINA

CITY           SKY/WX    TMP DP  RH WIND       PRES   REMARKS
RICHMOND       MOSUNNY   89  57  33 W8G18     29.70F
CHESTERFIELD*  CLEAR     88  57  35 W8        29.73F
PETERSBURG*    SUNNY     84  62  47 SW6       29.73F
HANOVER        SUNNY     86  61  42 SW8       29.71F
TAPPAHANNOCK*  SUNNY     85  53  33 SW5       29.71S
CHARLOTTSVILLE MOSUNNY   86  62  44 SW10      29.68F
ORANGE*        SUNNY     86  59  39 S12       29.69S
LOUISA*        MOSUNNY   88  63  42 SW3       29.68F
FARMVILLE*     MOSUNNY   88  61  40 SW7       29.71S
CREWE*         PTCLDY    85  64  48 SW6       29.73S
FORT PICKETT*  CLEAR     84  65  51 SW10      29.74S
LUNENBURG*     CLEAR     83  67  58 W3        29.75S
SOUTH HILL*    SUNNY     84  66  54 SW9       29.81S
LAWRENCEVILLE* CLEAR     83  68  60 SW9       29.75S
ROANOKE RAPIDS CLEAR     82  64  54 W8        29.76S
RALEIGH        MOSUNNY   84  64  50 W8        29.80R
$$

VAZ088>098-212200-
SOUTHEAST VIRGINIA

CITY           SKY/WX    TMP DP  RH WIND       PRES   REMARKS
NORFOLK        SUNNY     80  61  52 W8        29.72S
VIRGINIA BEACH MOSUNNY   81  65  58 W9        29.72S
NORFOLK NAVAL  MOSUNNY   81  63  54 VRB5      29.74R
WEST POINT*    SUNNY     85  57  38 S5        29.72S
NEWPORT NEWS   SUNNY     86  60  41 W8        29.72S
LANGLEY AFB    SUNNY     81  62  51 W9        29.71R
FORT EUSTIS    SUNNY     82  56  40 NW6       29.71S
WILLIAMSBURG*  SUNNY     88  61  40 CALM      29.73S
HR EXEC AP*    CLEAR     81  63  54 W5        29.75R
FRANKLIN*      SUNNY     84  63  48 SW6       29.74S
WAKEFIELD      SUNNY     84  64  50 SW6       29.73S
$$

VAZ020-022-025-037-045-212200-
WEST CENTRAL AND SOUTHWEST VIRGINIA

CITY           SKY/WX    TMP DP  RH WIND       PRES   REMARKS
STAUNTON*      CLOUDY    85  59  41 SW14G22   29.73S
HOT SPRINGS VA LGT RAIN  63  52  67 W15G22    29.90S
LYNCHBURG      SUNNY     81  66  60 SW8       29.77F
DANVILLE       SUNNY     85  65  51 SW10      29.78F
SOUTH BOSTON*  NOT AVBL
MARTINSVILLE   CLOUDY    78  66  66 CALM      29.84S
ROANOKE        PTSUNNY   81  62  52 W14       29.80F
BLACKSBURG     MOSUNNY   73  66  78 W7G16     29.87S
DUBLIN*        CLOUDY    74  66  77 SW9       29.87F
MARION*        CLOUDY    73  64  75 W15G24    29.92F
HILLSVILLE*    PTSUNNY   73  62  68 W15       29.90F
RICHLANDS*     CLOUDY    73  66  80 SW10      29.92F
WISE*          MOSUNNY   70  68  94 SW12      29.94F
ABINGDON*      CLOUDY    71  68  90 W8        29.91F
$$

MDZ021>025-VAZ099-100-212200-
SOUTHERN MARYLAND AND THE DELMARVA PENINSULA

CITY           SKY/WX    TMP DP  RH WIND       PRES   REMARKS
PATUXENT RIVER PTSUNNY   79  60  52 SE6       29.68F
BAY BRIDGE APT   N/A     79  54  41 S7        29.66F
LEONARDTOWN    SUNNY     81  61  50 SE3       29.70S
DOVER          PTSUNNY   76  68  76 E5        29.64F
GEORGETOWN     CLOUDY    79  66  64 VRB5      29.67F
EASTON         PTSUNNY   82  61  47 CALM      29.70F
CAMBRIDGE      MOSUNNY   81  61  50 CALM      29.67F
SALISBURY      PTSUNNY   82  66  58 NW7       29.67F
OCEAN CITY     PTSUNNY   79  68  69 N7        29.67F
WALLOPS ISLAND PTSUNNY   82  66  58 N6        29.68F
ACCOMACK*      SUNNY     77  64  65 W8        29.70R
$$

NCZ012>017-030>032-212200-
EASTERN NORTH CAROLINA

CITY           SKY/WX    TMP DP  RH WIND       PRES   REMARKS
ELIZABETH CITY SUNNY     81  62  52 W10       29.74S
AHOSKIE*       SUNNY     81  66  60 CALM      29.76S
EDENTON*       SUNNY     80  67  64 SW5       29.76S
CURRITUCK*     SUNNY     82  63  52 W6        29.74S
KILL DEVIL HLS SUNNY     78  69  74 W7        29.73S
MANTEO         SUNNY     78  68  72 NW7       29.75R
CAPE HATTERAS  MOSUNNY   77  70  79 W6        29.77R
TARBORO*       CLEAR     85  64  50 SW8       29.78S
GOLDSBORO      SUNNY     85  67  56 W3        29.78F
WASHINGTON     MOSUNNY   82  64  54 SW9       29.78S
GREENVILLE     SUNNY     84  64  51 W7        29.81S
NEW BERN       MOSUNNY   84  64  50 VRB5      29.81R
WILMINGTON     SUNNY     85  62  46 W10       29.83S
$$

VAZ048-212200-
ELSEWHERE

CITY           SKY/WX    TMP DP  RH WIND       PRES   REMARKS
HARRISBURG PA  PTSUNNY   83  63  50 SW7       29.61F
BALTIMORE      MOSUNNY   81  65  58 SE9       29.65F
ANNAPOLIS      MOSUNNY   75  63  66 SE10      29.66F
ANDREWS AFB    SUNNY     84  61  45 SW12      29.66F
WILMINGTON DE  PTSUNNY   79  65  62 SE5       29.65F
PHILADELPHIA   CLOUDY    78  65  63 SE5       29.65F
WILDWOOD NJ*   PTSUNNY   75  66  73 CALM      29.67F
ATLANTIC CITY  CLOUDY    76  69  79 NE5       29.65F
HENDERSON NC   SUNNY     83  61  46 W8        29.79S
GREENSBORO     PTSUNNY   84  64  50 SW10      29.82S
ROCKY MOUNT    SUNNY     85  63  47 W7        29.78F
FAYETTEVILLE   MOSUNNY   88  62  41 W10       29.81S
CHARLOTTE      MOSUNNY   85  62  46 SW7       29.85F
$$

VAZ100-212200-
MARINE

STATION/POSITION TIME  TEMP    WIND        PRES    WAVE   SWELL
                       AIR SEA DIR/SP/G            HT/PER HT/PER
                 (UTC) (F)     (DEG/KT/KT) (MB)    (FT/S) (FT/S)
44066 TX TWR #4  2100   71 71   40/ 10/ 10 1002.9F   4/ 8   3/ 8
CAPE MAY NJ      2100   73 76  300/  6/  7 1004.0S
LEWES DE         2100   71 72  360/  4/  5 1004.5F
15NM E FENWICK I 2100   72 72              1004.1F   4/ 8
OCEAN-CITY-INLET 2100   75 72  360/  6/  7 1004.2F
WACHAPREAGUE VA  2100   78 74  280/  5/  9 1005.5R
THOMAS POINT MD  2100   75 74  180/  9/  9 1005.6F
GOOSES REEF MD   2100   76     240/  2/  4 1005.8S
COVE POINT MD    2100   76     100/  1/  1 1005.1F
SOLOMONS ISLAND  2100      77                N/A
BISHOPS HEAD MD  2100   75 74  230/  5/  6 1004.6F
PINEY POINT MD   2100          180/  6/  7   N/A
POTOMAC MD       2100   76     190/  2/  4 1004.9S
CAMBRIDGE MD     2100   80 74  250/  4/  6 1004.6R
LEWISETTA VA     2100   75 74  100/  3/  4 1005.2R
RAPPAHANNOCK LGT 2100           CALM  /  1 1006.5S
STINGRAY PT      2100   75      90/  4/  6   N/A
YORK RVR RNG VA  2100   80     270/ 11/ 12 1005.7S
YORKTOWN VA      2100   80 76  310/  5/  6 1005.9R
JAMESTOWN VA     2100   80        CALM       N/A
DOMINION TERM VA 2100   78     300/  6/  6 1006.6R
KIPTOPEKE VA     2100      79  300/  5/  6   N/A
CHES BAY BRIDGE  2100   75 75  260/  3/  3 1006.1R
CAPE HENRY VA    2100   76     310/  6/  7 1005.1R
CHESAPEAKE LGHT  2000   74     310/ 10/ 11 1006.9S
WILLOUBY STN VA  2100   79     270/ 10/ 11 1005.3R
S CRANEY ISL VA  2100          220/  6/ 10 1006.4R
CAPE HENRY BUOY  2100      75                N/A     4/ 8
1ST LANDING BUOY 2100   76     270/  4/  6 1006.0S
CAPE CHARLES BUO 2100      74                N/A     4/ 8   3/ 8
OFFSHORE WE BUOY 2100      74                N/A     5/ 8   5/ 8
64NM E OF VA BCH 2100   74 77  300/ 17/ 19 1005.0R   7/ 9   5/ 9
DUCK PIER NC     2100   78 74  280/  6/  8 1006.2R
44100 DUCK FRF   2100      74                N/A     6/ 8   2/11
44056 DUCK FRF   2100                        N/A     5/ 8
OREGON INLET NC  2100   78 74  290/ 12/ 13 1007.1S
DIAMOND SHLS NC  2100   77     280/ 17/ 21 1008.0R   6/ 9   3/ 9
CAPE LOOKOUT NC  2000   81     280/  9/ 10 1009.1R
$$



USA.gov is the U.S. government's official web portal to all federal, state and local government web resources and services.